User: anonymous   Login
Location: Unspecified
(0.0000°N, 0.0000°E)
Time: 21:43:37
(UTC+00:00)
Language:

PSLV R/B - Orbit

View from above orbital plane
View from above orbital plane
View from above satellite
View from above satellite

Ground track
Ground track

The orbit data is extracted from the following two-line orbital elements,

1 41791U 16059J   22268.18055206  .00000264  00000-0  62462-4 0  9996
2 41791  97.9814 318.2158 0041121 260.8256  98.8292 14.61216328319755
Epoch (UTC): 25 September 2022 04:19:59
Eccentricity: 0.0041121
inclination: 97.9814°
perigee height: 660 km
apogee height: 718 km
right ascension of ascending node: 318.2158°
argument of perigee: 260.8256°
revolutions per day: 14.61216328
mean anomaly at epoch: 98.8292°
orbit number at epoch: 31975

The dashed part of the orbit path shows where the satellite is in the earth's shadow,  

DLR